Location: �terpigny
(49.8910°N, 2.9249°E)
Time: 13:09:33
(UTC+00:00)

Daily predictions for brighter satellites

Satellite Brightness Start Highest point End
(mag) Time Altitude Azimuth Time Altitude Azimuth Time Altitude Azimuth
Cosmos 2369 3.9 17:01:16 10° SSW 17:06:56 81° WNW 17:12:41 10° NNE
PAYLOAD B 4.2 17:06:52 10° SSE 17:12:20 68° ENE 17:17:54 10° NNW
Cosmos 1455 Rocket 3.4 17:08:36 10° SSE 17:12:48 43° E 17:17:03 10° NNE
Cosmos 1892 4.4 17:12:22 10° NNE 17:14:19 13° ENE 17:16:13 10° E
YAOGAN 1 4.0 17:11:20 10° ESE 17:14:20 19° ENE 17:17:19 10° NNE
Cosmos 1697 Rocket 3.6 17:11:17 10° SW 17:16:47 51° NW 17:22:19 10° NNE
CZ-2D R/B 3.2 17:18:41 10° SSE 17:22:30 63° ENE 17:26:22 10° N
Cosmos 1328 4.0 17:19:32 10° N 17:23:30 51° ENE 17:27:26 10° SSE
Cosmos 1821 Rocket 4.0 17:17:25 10° S 17:23:48 77° E 17:30:09 10° NNE
NOSS 2 (A) 4.1 17:22:29 10° NW 17:25:24 71° NE 17:27:54 10° SE
Cosmos 1844 Rocket 3.3 17:21:50 10° NNW 17:26:57 35° NE 17:32:02 10° ESE
Cosmos 1544 Rocket 4.1 17:23:10 10° SSE 17:27:16 36° E 17:31:22 10° NNE
NOSS 2-3 (E) 4.4 17:24:34 10° S 17:28:05 29° ESE 17:32:05 10° ENE
USA 215 3.3 17:22:06 10° ENE 17:28:41 83° SSE 17:35:14 10° SW
Cosmos 1908 3.4 17:26:21 10° SSW 17:30:13 79° W 17:34:05 10° N
Lacrosse 4 Rocket 1.6 17:28:01 10° NNW 17:32:15 53° NE 17:36:33 10° SE
Cosmos 1408 4.1 17:30:01 10° NNE 17:32:26 17° ENE 17:34:31 11° ESE
USA 229 DEB 4.5 17:28:02 10° SSE 17:33:15 27° ESE 17:38:44 10° ENE
USA 229 4.5 17:28:10 10° SSE 17:33:22 27° ESE 17:38:50 10° ENE
Cosmos 1934 Rocket 4.1 17:28:58 10° SSE 17:34:49 52° E 17:40:40 10° NNE
Cosmos 389 Rocket 4.0 17:33:01 10° SW 17:36:14 39° WNW 17:39:30 10° N
Meteor 2-10 Rocket 4.4 17:31:51 10° SSE 17:36:28 28° E 17:40:58 10° NNE
Cosmos 1953 2.5 17:32:56 10° SSW 17:36:59 77° W 17:41:04 10° N
Okean O Rocket 1.6 17:37:22 10° SSE 17:41:39 63° ENE 17:46:00 10° N
H-2A R/B 2.2 17:37:38 10° SSE 17:43:04 85° ENE 17:48:34 10° NNW
deb Chang Zheng 4 3.6 17:42:27 10° SSE 17:46:39 79° WSW 17:50:55 10° NNW
Cosmos 332 Rocket 4.3 17:42:27 10° S 17:46:56 37° ESE 17:51:24 10° NE
Cosmos 2278 4.1 17:41:53 10° SW 17:47:33 69° WNW 17:53:17 10° NNE
X-37B 2.4 17:45:47 10° WSW 17:48:07 22° SSW 17:50:27 10° SE
ATLAS 3B R/B 3.7 17:43:18 10° WSW 17:49:35 42° NNW 17:56:12 10° NE
Cosmos 1602 Rocket 3.8 17:45:59 10° N 17:50:10 42° ENE 17:54:16 10° SSE
Cosmos 2278 Rocket 3.9 17:47:04 10° N 17:50:27 16° NNE 17:52:43 13° ENE
Spot 2 4.3 17:47:56 10° SE 17:51:58 48° ENE 17:56:15 10° N
SL-8 R/B 3.8 17:47:55 10° WSW 17:52:41 68° SSE 17:56:02 19° E
ATLAS 5 CENTAUR R/B 2.2 17:50:32 10° WSW 17:54:23 50° NW 17:58:52 10° NE
NOSS 3-1 (A) 3.8 17:50:47 10° S 17:55:32 34° ESE 17:59:58 14° ENE
COSMO-SKYMED 1 2.5 17:51:21 10° NNE 17:55:41 63° ESE 18:00:00 10° S
Okean 1-7 Rocket 3.7 17:52:57 10° NNW 17:57:24 82° W 18:01:51 10° S
Cosmos 1300 2.5 17:55:35 10° S 17:59:22 75° E 18:03:11 10° NNE
SL-16 R/B 2.2 17:54:13 10° SSW 17:59:47 64° ESE 18:05:26 10° NE
Cosmos 1825 3.6 17:57:26 10° NNE 17:59:51 20° ENE 17:59:51 20° ENE
Cosmos 2123 Rocket 4.1 17:54:31 10° N 18:00:54 86° W 18:07:12 10° S
HJ-1C 4.0 18:00:34 25° ESE 18:01:37 31° ENE 18:04:34 10° N
USA 267 4.0 17:58:06 10° SSE 18:04:25 52° SW 18:10:48 10° WNW
Okean-O 3.4 18:02:47 20° ESE 18:05:03 31° ENE 18:08:58 10° N
BREEZE-M R/B 2.7 18:02:59 10° W 18:06:30 66° SSW 18:09:11 21° ESE
CENTAUR R/B 4.1 18:00:50 10° NW 18:07:10 31° N 18:12:34 16° ENE
CZ-4 R/B 1.5 18:03:28 10° SE 18:07:23 51° ENE 18:11:24 10° N
IRAS Rocket 4.4 18:04:34 10° NNE 18:09:55 46° E 18:15:12 10° S
Cosmos 2322 Rocket 2.2 18:06:30 10° SSW 18:12:00 61° ESE 18:17:33 10° NE
Cosmos 1825 Rocket 4.2 18:08:48 10° N 18:12:42 32° ENE 18:13:45 28° E
Cosmos 371 Rocket 3.4 18:08:20 10° SSW 18:13:12 82° WNW 18:18:08 10° NNE
NOSS 2-3 (D) 3.5 18:11:23 10° SSW 18:15:26 66° SE 18:18:26 21° NE
SJ-11-01 4.5 18:12:14 10° S 18:16:56 75° WSW 18:21:41 10° NNW
Cosmos 2251 Rocket 3.4 18:11:54 10° NNW 18:17:12 78° ENE 18:22:25 10° SSE
Cosmos 407 Rocket 3.9 18:12:29 10° NNW 18:17:35 42° ENE 18:20:05 26° ESE
Cosmos 1140 Rocket 3.9 18:13:31 10° NNW 18:18:26 40° ENE 18:20:33 28° ESE
Cosmos 2219 Rocket 4.1 18:15:13 10° SE 18:15:44 12° SE 18:15:44 12° SE
SL-08 RB Rocket 3.6 18:14:53 10° SSE 18:19:27 80° ENE 18:24:06 10° NNW
Cosmos 1844 3.7 18:13:40 10° NNW 18:19:28 65° ENE 18:23:55 17° SE
NOSS 3-1 (C) 3.2 18:14:13 10° SW 18:19:33 80° SE 18:25:08 14° NE
Cosmos 1758 Rocket 3.5 18:15:26 10° N 18:19:42 56° ENE 18:23:58 10° SSE
Cosmos 2360 Rocket 2.4 18:16:21 10° S 18:21:41 45° ESE 18:26:04 15° NE
Tiangong 3.2 18:21:43 10° SW 18:23:56 17° S 18:24:40 16° S
Cosmos 2228 3.5 18:20:54 10° SSE 18:24:57 38° E 18:29:02 10° NNE
Cosmos 1626 Rocket 4.0 18:20:45 10° NNW 18:25:01 62° W 18:29:17 10° S
H-2A R/B 2.4 18:21:06 10° SSE 18:25:22 87° WSW 18:29:31 10° NNW
Cosmos 1953 Rocket 4.5 18:21:52 10° N 18:25:25 30° ENE 18:25:25 30° ENE
Cosmos 2100 Rocket 4.5 18:22:08 10° SSE 18:27:46 36° E 18:33:29 10° NNE
NOSS 2-3 (C) 3.5 18:23:53 10° SW 18:27:59 87° SE 18:30:52 24° NE
ARGOS 3.5 18:23:11 10° S 18:28:34 67° WSW 18:34:00 10° NNW
Cosmos 2333 Rocket 3.2 18:24:10 10° SSE 18:27:35 25° SE 18:27:35 25° SE
SWARM C 4.4 18:26:13 10° S 18:29:31 90° NE 18:32:51 10° N
SWARM A 4.1 18:26:26 10° S 18:29:43 90° SSW 18:33:04 10° N
MetOp-A 4.2 18:26:08 18° SE 18:29:59 53° ENE 18:35:12 10° N
Feng Yun 1-1 Rocket 4.4 18:25:07 10° SSE 18:30:43 80° WSW 18:36:31 10° NNW
CZ-4C R/B 3.3 18:32:03 10° N 18:35:24 61° WNW 18:38:37 10° SSW
Meteor 1-4 Rocket 2.5 18:32:19 10° SSW 18:35:47 74° WNW 18:39:14 10° N
NOSS 8 (H) 4.0 18:33:01 10° SW 18:36:12 81° NW 18:36:17 80° NNW
In-Cosmos 22 Rocket 4.1 18:32:40 10° NNW 18:38:01 84° W 18:43:20 10° S
Cosmos 220 Rocket 3.9 18:33:48 10° SSW 18:38:13 77° ESE 18:41:02 22° NNE
Cosmos 2173 Rocket 4.3 18:34:12 10° SSE 18:39:55 40° E 18:45:44 10° NNE
Cosmos 44 3.5 18:35:09 10° SSW 18:40:30 62° ESE 18:42:36 35° ENE
Cosmos 614 Rocket 4.4 18:40:25 10° NNW 18:45:26 60° WSW 18:50:27 10° S
Cosmos 1980 Rocket 4.2 18:41:37 10° W 18:46:20 26° NW 18:51:05 10° NNE
CZ-2C R/B 3.2 18:41:04 10° N 18:46:36 62° WNW 18:52:02 10° SSW
CSL-04 Debris 4.1 18:44:16 26° SE 18:47:19 67° ENE 18:52:43 10° N
Cosmos 1943 Rocket 4.2 18:44:56 10° N 18:47:24 13° NNE 18:47:58 13° NNE
Cosmos 2344 4.4 18:40:26 10° NW 18:49:27 77° SW 19:02:04 10° SSE
YAOGAN 1 3.0 18:45:44 10° S 18:50:00 61° WSW 18:54:19 10° NNW
Cosmos 1605 Rocket 4.2 18:44:00 10° SSW 18:50:17 73° W 18:56:42 10° N
H-2A R/B 2.1 18:51:01 55° SSE 18:51:01 55° SSE 18:54:29 10° S
Cosmos 1892 3.1 18:46:39 10° NNW 18:50:22 60° W 18:53:16 16° S
IRS-1C Rocket 4.0 18:45:46 10° SSE 18:51:02 87° WSW 18:56:21 10° NNW
CSL-04 Rocket 3.6 18:56:00 33° SSE 18:58:34 75° ENE 19:04:08 10° NNW
Cosmos 2058 4.5 18:56:52 10° N 18:58:45 24° NNE 18:58:45 24° NNE
Cosmos 1190 Rocket 3.9 18:56:28 10° NNW 19:01:40 66° ENE 19:02:03 63° E
Cosmos 1408 3.8 19:04:11 10° NNW 19:07:35 40° W 19:08:49 29° SW
Lacrosse 4 Rocket 3.8 19:07:15 10° WNW 19:10:37 22° WSW 19:14:02 10° SSW
Cosmos 1844 Rocket 3.5 19:05:41 10° NW 19:11:02 49° WSW 19:15:10 17° S
USA 215 3.7 19:08:28 31° NE 19:11:31 55° NNW 19:17:51 10° W
Cosmos 2369 Rocket 4.4 19:10:34 10° N 19:11:57 11° NNE 19:12:12 11° NNE
Orbus 7S? 4.5 19:07:17 10° WNW 19:15:06 50° SW 19:16:02 43° SSW
USA 229 DEB 3.6 19:17:03 10° SW 19:23:30 78° NW 19:26:38 35° NE
USA 229 3.6 19:17:09 10° SW 19:23:36 78° NW 19:26:42 35° NE
SL-8 R/B 4.4 19:30:19 10° W 19:33:59 51° WSW 19:33:59 51° WSW
Cosmos 1825 4.1 19:32:25 10° NNW 19:34:37 27° NW 19:34:37 27° NW
Cosmos 2278 Rocket 2.9 19:30:20 10° NNW 19:34:34 43° N 19:34:34 43° N
Cosmos 2346 Rocket 4.5 19:30:26 10° NNW 19:36:42 79° W 19:38:12 55° S
ATLAS 5 CENTAUR R/B 3.8 19:36:57 10° WNW 19:40:07 19° NNW 19:40:45 19° N
Cosmos 2333 4.5 19:34:48 10° SSW 19:39:18 59° SW 19:39:18 59° SW
Okean-O 4.1 19:40:23 30° SW 19:41:29 34° W 19:45:33 10° NNW
ATLAS 3B R/B 4.3 19:36:30 10° WNW 19:42:07 26° N 19:44:43 21° NNE
CZ-4 R/B 4.1 19:39:53 10° SW 19:42:41 18° W 19:45:32 10° NW
SL-16 R/B 3.9 19:39:25 10° WSW 19:44:21 30° NW 19:49:18 10° NNE
NOSS 3-1 (A) 3.8 19:40:37 10° WSW 19:46:02 57° NW 19:47:27 47° N
Resurs 01 Rocket 4.3 19:57:02 12° N 19:57:02 12° N 19:57:19 10° N
Cosmos 2322 Rocket 3.9 19:51:32 10° WSW 19:56:26 30° NW 20:00:35 14° N
CENTAUR R/B 3.4 19:52:05 10° NW 19:59:40 53° NE 19:59:45 53° NE
Cosmos 2219 Rocket 4.3 19:56:39 10° SSW 19:57:35 15° SSW 19:57:35 15° SSW
NOSS 3-2 (A) 4.1 19:57:15 10° NW 20:03:52 59° NNE 20:03:52 59° NNE
Cosmos 2360 Rocket 3.4 20:00:33 10° WSW 20:05:48 38° NW 20:07:53 29° N
Cosmos 2333 Rocket 3.8 20:07:09 10° SW 20:09:43 27° SW 20:09:43 27° SW
USA 238 DEB 4.4 20:07:24 10° NW 20:13:15 48° N 20:13:15 48° N
USA 238 4.4 20:07:30 10° NW 20:13:20 48° N 20:13:20 48° N
Cosmos 1943 Rocket 4.2 20:27:35 10° NNW 20:29:29 20° N 20:29:29 20° N
USA 215 4.3 20:55:49 39° NW 20:55:49 39° NW 21:00:14 10° WNW
CENTAUR R/B 4.4 21:42:50 10° NW 21:46:55 34° WNW 21:46:55 34° WNW
